Time,TemperatureF,DewpointF,PressureIn,WindDirection,WindDirectionDegrees,WindSpeedMPH,WindSpeedGustMPH,Humidity,HourlyPrecipIn,Conditions,Clouds,dailyrainin,SoftwareType,DateUTC
2013-02-07 00:00:00,29.5,5.2,30.27,NNW,335,10.0,13.0,35,0.00,,CLR,0.02,VWS V14.01,2013-02-07 05:00:00,
2013-02-07 00:01:00,29.5,5.2,30.27,NNW,335,10.0,13.0,35,0.00,,CLR,0.02,VWS V14.01,2013-02-07 05:01:00,
2013-02-07 00:13:00,29.1,4.9,30.27,WNW,295,3.0,14.0,35,0.00,,CLR,0.00,VWS V14.01,2013-02-07 05:13:00,
2013-02-07 00:18:00,29.0,6.0,30.28,North,349,8.0,14.0,37,0.00,,CLR,0.00,VWS V14.01,2013-02-07 05:18:00,
2013-02-07 00:23:00,28.9,5.9,30.28,NW,322,3.0,14.0,37,0.00,,CLR,0.00,VWS V14.01,2013-02-07 05:23:00,
2013-02-07 00:28:00,28.8,5.8,30.28,NW,319,4.0,14.0,37,0.00,,CLR,0.00,VWS V14.01,2013-02-07 05:28:00,
2013-02-07 00:33:00,28.7,5.7,30.29,NW,306,2.0,4.0,37,0.00,,CLR,0.00,VWS V14.01,2013-02-07 05:33:00,
2013-02-07 00:38:00,28.5,6.1,30.29,NW,314,4.0,4.0,38,0.00,,CLR,0.00,VWS V14.01,2013-02-07 05:38:00,
2013-02-07 00:43:00,28.4,6.1,30.30,WSW,251,3.0,6.0,38,0.00,,CLR,0.00,VWS V14.01,2013-02-07 05:43:00,
2013-02-07 00:48:00,28.2,6.4,30.30,WSW,237,0.0,6.0,39,0.00,,CLR,0.00,VWS V14.01,2013-02-07 05:48:00,
2013-02-07 00:53:00,28.1,6.3,30.30,NNW,333,1.0,6.0,39,0.00,,CLR,0.00,VWS V14.01,2013-02-07 05:53:00,
2013-02-07 00:58:00,27.9,5.6,30.30,NW,314,0.0,7.0,38,0.00,,CLR,0.00,VWS V14.01,2013-02-07 05:58:00,
2013-02-07 01:03:00,27.9,6.7,30.30,NW,323,4.0,5.0,40,0.00,,CLR,0.00,VWS V14.01,2013-02-07 06:03:00,
2013-02-07 01:08:00,27.8,6.6,30.29,NNW,332,0.0,6.0,40,0.00,,CLR,0.00,VWS V14.01,2013-02-07 06:08:00,
2013-02-07 01:13:00,27.7,7.1,30.29,NNW,332,0.0,6.0,41,0.00,,CLR,0.00,VWS V14.01,2013-02-07 06:13:00,
2013-02-07 01:18:00,27.5,6.9,30.29,WNW,286,3.0,8.0,41,0.00,,CLR,0.00,VWS V14.01,2013-02-07 06:18:00,
2013-02-07 01:23:00,27.4,6.3,30.30,NW,315,2.0,8.0,40,0.00,,CLR,0.00,VWS V14.01,2013-02-07 06:23:00,
2013-02-07 01:28:00,27.3,6.7,30.30,WSW,245,2.0,8.0,41,0.00,,CLR,0.00,VWS V14.01,2013-02-07 06:28:00,
2013-02-07 01:33:00,27.2,7.2,30.31,West,277,5.0,7.0,42,0.00,,CLR,0.00,VWS V14.01,2013-02-07 06:33:00,
2013-02-07 01:38:00,27.1,7.1,30.31,WSW,257,3.0,7.0,42,0.00,,CLR,0.00,VWS V14.01,2013-02-07 06:38:00,
2013-02-07 01:43:00,27.0,7.0,30.32,West,269,2.0,7.0,42,0.00,,CLR,0.00,VWS V14.01,2013-02-07 06:43:00,
2013-02-07 01:48:00,26.8,6.3,30.32,West,271,2.0,7.0,41,0.00,,CLR,0.00,VWS V14.01,2013-02-07 06:48:00,
2013-02-07 01:54:00,26.8,6.8,30.32,West,260,1.0,7.0,42,0.00,,CLR,0.00,VWS V14.01,2013-02-07 06:54:00,
2013-02-07 01:59:00,26.7,7.2,30.32,NNW,348,1.0,7.0,43,0.00,,CLR,0.00,VWS V14.01,2013-02-07 06:59:00,
2013-02-07 02:04:00,26.6,6.6,30.32,WNW,286,1.0,7.0,42,0.00,,CLR,0.00,VWS V14.01,2013-02-07 07:04:00,
2013-02-07 02:09:00,26.5,7.0,30.33,WSW,251,2.0,7.0,43,0.00,,CLR,0.00,VWS V14.01,2013-02-07 07:09:00,
2013-02-07 02:14:00,26.4,6.4,30.33,West,270,2.0,7.0,42,0.00,,CLR,0.00,VWS V14.01,2013-02-07 07:14:00,
2013-02-07 02:19:00,26.4,6.4,30.33,SW,224,1.0,7.0,42,0.00,,CLR,0.00,VWS V14.01,2013-02-07 07:19:00,
2013-02-07 02:24:00,26.3,7.9,30.33,West,266,2.0,7.0,45,0.00,,CLR,0.00,VWS V14.01,2013-02-07 07:24:00,
2013-02-07 02:29:00,26.1,6.7,30.33,NW,304,3.0,7.0,43,0.00,,CLR,0.00,VWS V14.01,2013-02-07 07:29:00,
2013-02-07 02:34:00,26.0,7.1,30.33,WNW,302,0.0,8.0,44,0.00,,CLR,0.00,VWS V14.01,2013-02-07 07:34:00,
2013-02-07 02:39:00,26.0,7.1,30.33,NW,319,2.0,8.0,44,0.00,,CLR,0.00,VWS V14.01,2013-02-07 07:39:00,
2013-02-07 02:44:00,25.9,7.0,30.34,WSW,250,3.0,8.0,44,0.00,,CLR,0.00,VWS V14.01,2013-02-07 07:44:00,
2013-02-07 02:49:00,25.8,6.9,30.34,West,276,0.0,8.0,44,0.00,,CLR,0.00,VWS V14.01,2013-02-07 07:49:00,
2013-02-07 02:54:00,25.7,7.3,30.34,NNW,327,2.0,8.0,45,0.00,,CLR,0.00,VWS V14.01,2013-02-07 07:54:00,
2013-02-07 02:59:00,25.7,7.3,30.34,NW,313,1.0,8.0,45,0.00,,CLR,0.00,VWS V14.01,2013-02-07 07:59:00,
2013-02-07 03:04:00,25.6,7.2,30.34,NW,315,1.0,6.0,45,0.00,,CLR,0.00,VWS V14.01,2013-02-07 08:04:00,
2013-02-07 03:09:00,25.5,7.6,30.34,NW,322,1.0,7.0,46,0.00,,CLR,0.00,VWS V14.01,2013-02-07 08:09:00,
2013-02-07 03:14:00,25.4,7.5,30.34,NW,307,1.0,7.0,46,0.00,,CLR,0.00,VWS V14.01,2013-02-07 08:14:00,
2013-02-07 03:19:00,25.3,7.4,30.34,West,280,0.0,7.0,46,0.00,,CLR,0.00,VWS V14.01,2013-02-07 08:19:00,
2013-02-07 03:24:00,25.3,7.4,30.34,NNW,327,1.0,7.0,46,0.00,,CLR,0.00,VWS V14.01,2013-02-07 08:24:00,
2013-02-07 03:29:00,25.1,7.2,30.34,West,281,0.0,7.0,46,0.00,,CLR,0.00,VWS V14.01,2013-02-07 08:29:00,
2013-02-07 03:34:00,25.1,7.7,30.34,NNW,341,2.0,4.0,47,0.00,,CLR,0.00,VWS V14.01,2013-02-07 08:34:00,
2013-02-07 03:39:00,25.0,8.1,30.34,NW,313,2.0,5.0,48,0.00,,CLR,0.00,VWS V14.01,2013-02-07 08:39:00,
2013-02-07 03:44:00,25.0,8.1,30.34,NW,315,1.0,5.0,48,0.00,,CLR,0.00,VWS V14.01,2013-02-07 08:44:00,
2013-02-07 03:49:00,24.9,8.9,30.34,NW,315,0.0,5.0,50,0.00,,CLR,0.00,VWS V14.01,2013-02-07 08:49:00,
2013-02-07 03:54:00,24.9,8.5,30.34,NW,315,0.0,5.0,49,0.00,,CLR,0.00,VWS V14.01,2013-02-07 08:54:00,
2013-02-07 03:59:00,24.8,8.8,30.35,NW,315,0.0,5.0,50,0.00,,CLR,0.00,VWS V14.01,2013-02-07 08:59:00,
2013-02-07 04:04:00,24.8,8.8,30.35,NW,315,0.0,0.0,50,0.00,,CLR,0.00,VWS V14.01,2013-02-07 09:04:00,
2013-02-07 04:09:00,24.7,9.2,30.35,NW,317,0.0,3.0,51,0.00,,CLR,0.00,VWS V14.01,2013-02-07 09:09:00,
2013-02-07 04:14:00,24.6,9.1,30.35,NW,317,0.0,3.0,51,0.00,,CLR,0.00,VWS V14.01,2013-02-07 09:14:00,
2013-02-07 04:19:00,24.5,9.0,30.36,NW,317,0.0,3.0,51,0.00,,CLR,0.00,VWS V14.01,2013-02-07 09:19:00,
2013-02-07 04:24:00,24.4,9.3,30.36,NW,317,0.0,3.0,52,0.00,,CLR,0.00,VWS V14.01,2013-02-07 09:24:00,
2013-02-07 04:29:00,24.3,9.2,30.36,NE,34,0.0,3.0,52,0.00,,CLR,0.00,VWS V14.01,2013-02-07 09:29:00,
2013-02-07 04:34:00,24.2,9.1,30.36,NE,34,0.0,0.0,52,0.00,,CLR,0.00,VWS V14.01,2013-02-07 09:34:00,
2013-02-07 04:39:00,24.1,9.5,30.36,NE,34,0.0,1.0,53,0.00,,CLR,0.00,VWS V14.01,2013-02-07 09:39:00,
2013-02-07 04:44:00,23.9,9.3,30.36,NE,34,0.0,1.0,53,0.00,,CLR,0.00,VWS V14.01,2013-02-07 09:44:00,
2013-02-07 04:49:00,23.8,9.2,30.36,NE,34,0.0,1.0,53,0.00,,CLR,0.00,VWS V14.01,2013-02-07 09:49:00,
2013-02-07 04:54:00,23.7,9.9,30.36,NE,34,0.0,1.0,55,0.00,,CLR,0.00,VWS V14.01,2013-02-07 09:54:00,
2013-02-07 04:59:00,23.6,10.2,30.37,NE,34,0.0,1.0,56,0.00,,CLR,0.00,VWS V14.01,2013-02-07 09:59:00,
2013-02-07 05:04:00,23.5,9.7,30.37,NE,34,0.0,0.0,55,0.00,,CLR,0.00,VWS V14.01,2013-02-07 10:04:00,
2013-02-07 05:09:00,23.4,10.0,30.37,NE,34,0.0,0.0,56,0.00,,CLR,0.00,VWS V14.01,2013-02-07 10:09:00,
2013-02-07 05:14:00,23.3,10.3,30.37,NE,34,0.0,0.0,57,0.00,,CLR,0.00,VWS V14.01,2013-02-07 10:14:00,
2013-02-07 05:19:00,23.2,10.6,30.37,NE,34,0.0,1.0,58,0.00,,CLR,0.00,VWS V14.01,2013-02-07 10:19:00,
2013-02-07 05:24:00,23.0,9.7,30.38,NE,34,0.0,1.0,56,0.00,,CLR,0.00,VWS V14.01,2013-02-07 10:24:00,
2013-02-07 05:29:00,22.9,10.0,30.38,NE,34,0.0,1.0,57,0.00,,CLR,0.00,VWS V14.01,2013-02-07 10:29:00,
2013-02-07 05:34:00,22.9,10.3,30.38,NE,34,0.0,0.0,58,0.00,,CLR,0.00,VWS V14.01,2013-02-07 10:34:00,
2013-02-07 05:39:00,22.8,10.2,30.38,NE,34,0.0,2.0,58,0.00,,CLR,0.00,VWS V14.01,2013-02-07 10:39:00,
2013-02-07 05:44:00,22.6,9.7,30.38,NNW,341,2.0,3.0,57,0.00,,CLR,0.00,VWS V14.01,2013-02-07 10:44:00,
2013-02-07 05:49:00,22.5,9.2,30.38,NW,325,1.0,5.0,56,0.00,,CLR,0.00,VWS V14.01,2013-02-07 10:49:00,
2013-02-07 05:54:00,22.5,9.6,30.38,NW,325,1.0,5.0,57,0.00,,CLR,0.00,VWS V14.01,2013-02-07 10:54:00,
2013-02-07 05:59:00,22.4,9.9,30.38,NW,325,1.0,5.0,58,0.00,,CLR,0.00,VWS V14.01,2013-02-07 10:59:00,
2013-02-07 06:04:00,22.4,9.5,30.38,NW,321,2.0,5.0,57,0.00,,CLR,0.00,VWS V14.01,2013-02-07 11:04:00,
2013-02-07 06:09:00,22.4,9.1,30.38,NW,322,0.0,5.0,56,0.00,,CLR,0.00,VWS V14.01,2013-02-07 11:09:00,
2013-02-07 06:14:00,22.4,9.1,30.39,NW,312,0.0,5.0,56,0.00,,CLR,0.00,VWS V14.01,2013-02-07 11:14:00,
2013-02-07 06:19:00,22.4,9.5,30.39,NW,312,0.0,5.0,57,0.00,,CLR,0.00,VWS V14.01,2013-02-07 11:19:00,
2013-02-07 06:24:00,22.5,10.0,30.40,NW,312,0.0,5.0,58,0.00,,CLR,0.00,VWS V14.01,2013-02-07 11:24:00,
2013-02-07 06:29:00,22.5,10.0,30.40,NW,312,0.0,5.0,58,0.00,,CLR,0.00,VWS V14.01,2013-02-07 11:29:00,
2013-02-07 06:34:00,22.5,10.0,30.40,NW,312,0.0,2.0,58,0.00,,CLR,0.00,VWS V14.01,2013-02-07 11:34:00,
2013-02-07 06:39:00,22.5,9.2,30.40,NW,312,2.0,3.0,56,0.00,,CLR,0.00,VWS V14.01,2013-02-07 11:39:00,
2013-02-07 06:44:00,22.5,9.2,30.41,NW,318,2.0,4.0,56,0.00,,CLR,0.00,VWS V14.01,2013-02-07 11:44:00,
2013-02-07 06:49:00,22.5,9.2,30.41,NW,309,1.0,4.0,56,0.00,,CLR,0.00,VWS V14.01,2013-02-07 11:49:00,
2013-02-07 06:54:00,22.5,8.8,30.41,NW,315,3.0,5.0,55,0.00,,CLR,0.00,VWS V14.01,2013-02-07 11:54:00,
2013-02-07 06:59:00,22.6,8.5,30.41,NW,315,2.0,5.0,54,0.00,,CLR,0.00,VWS V14.01,2013-02-07 11:59:00,
2013-02-07 07:04:00,22.7,8.6,30.41,NNW,327,0.0,4.0,54,0.00,,CLR,0.00,VWS V14.01,2013-02-07 12:04:00,
2013-02-07 07:09:00,22.8,8.7,30.42,NNW,334,2.0,8.0,54,0.00,,CLR,0.00,VWS V14.01,2013-02-07 12:09:00,
2013-02-07 07:14:00,22.9,8.8,30.42,NNW,330,2.0,8.0,54,0.00,,CLR,0.00,VWS V14.01,2013-02-07 12:14:00,
2013-02-07 07:19:00,23.0,8.9,30.42,WNW,292,2.0,8.0,54,0.00,,CLR,0.00,VWS V14.01,2013-02-07 12:19:00,
2013-02-07 07:24:00,23.1,8.9,30.42,NNW,333,6.0,10.0,54,0.00,,CLR,0.00,VWS V14.01,2013-02-07 12:24:00,
2013-02-07 07:29:00,23.2,8.6,30.42,NW,324,2.0,10.0,53,0.00,,CLR,0.00,VWS V14.01,2013-02-07 12:29:00,
2013-02-07 07:34:00,23.3,9.1,30.42,NNW,331,4.0,5.0,54,0.00,,CLR,0.00,VWS V14.01,2013-02-07 12:34:00,
2013-02-07 07:39:00,23.4,8.8,30.42,NW,309,3.0,7.0,53,0.00,,CLR,0.00,VWS V14.01,2013-02-07 12:39:00,
2013-02-07 07:44:00,23.6,8.6,30.42,NW,321,1.0,10.0,52,0.00,,CLR,0.00,VWS V14.01,2013-02-07 12:44:00,
2013-02-07 07:49:00,23.7,9.1,30.42,NNW,332,0.0,10.0,53,0.00,,CLR,0.00,VWS V14.01,2013-02-07 12:49:00,
2013-02-07 07:54:00,23.8,9.2,30.43,WNW,300,7.0,10.0,53,0.00,,CLR,0.00,VWS V14.01,2013-02-07 12:54:00,
2013-02-07 07:59:00,24.0,9.4,30.43,NNW,337,1.0,11.0,53,0.00,,CLR,0.00,VWS V14.01,2013-02-07 12:59:00,
2013-02-07 08:04:00,24.1,9.0,30.44,North,349,2.0,5.0,52,0.00,,CLR,0.00,VWS V14.01,2013-02-07 13:04:00,
2013-02-07 08:09:00,24.2,9.1,30.44,NW,308,2.0,5.0,52,0.00,,CLR,0.00,VWS V14.01,2013-02-07 13:09:00,
2013-02-07 08:14:00,24.3,9.2,30.44,NNW,344,0.0,5.0,52,0.00,,CLR,0.00,VWS V14.01,2013-02-07 13:14:00,
2013-02-07 08:19:00,24.5,9.4,30.45,NW,316,2.0,5.0,52,0.00,,CLR,0.00,VWS V14.01,2013-02-07 13:19:00,
2013-02-07 08:24:00,24.7,9.2,30.45,NW,324,3.0,5.0,51,0.00,,CLR,0.00,VWS V14.01,2013-02-07 13:24:00,
2013-02-07 08:29:00,24.8,8.8,30.45,NW,315,6.0,9.0,50,0.00,,CLR,0.00,VWS V14.01,2013-02-07 13:29:00,
2013-02-07 08:34:00,24.9,8.5,30.46,WNW,290,3.0,6.0,49,0.00,,CLR,0.00,VWS V14.01,2013-02-07 13:34:00,
2013-02-07 08:40:00,25.0,9.0,30.46,NNW,332,2.0,6.0,50,0.00,,CLR,0.00,VWS V14.01,2013-02-07 13:40:00,
2013-02-07 08:45:00,25.1,9.1,30.46,NW,315,2.0,6.0,50,0.00,,CLR,0.00,VWS V14.01,2013-02-07 13:45:00,
2013-02-07 08:50:00,25.3,9.3,30.46,NNW,336,1.0,6.0,50,0.00,,CLR,0.00,VWS V14.01,2013-02-07 13:50:00,
2013-02-07 08:55:00,25.5,9.0,30.46,NNW,336,2.0,6.0,49,0.00,,CLR,0.00,VWS V14.01,2013-02-07 13:55:00,
2013-02-07 09:00:00,25.6,8.6,30.46,NW,323,1.0,6.0,48,0.00,,CLR,0.00,VWS V14.01,2013-02-07 14:00:00,
2013-02-07 09:05:00,25.7,8.7,30.46,NW,323,0.0,4.0,48,0.00,,CLR,0.00,VWS V14.01,2013-02-07 14:05:00,
2013-02-07 09:10:00,25.9,9.4,30.46,NW,323,2.0,4.0,49,0.00,,CLR,0.00,VWS V14.01,2013-02-07 14:10:00,
2013-02-07 09:15:00,26.1,9.6,30.46,NW,323,2.0,4.0,49,0.00,,CLR,0.00,VWS V14.01,2013-02-07 14:15:00,
2013-02-07 09:20:00,26.3,9.3,30.46,NW,314,3.0,4.0,48,0.00,,CLR,0.00,VWS V14.01,2013-02-07 14:20:00,
2013-02-07 09:25:00,26.5,9.5,30.46,NNW,331,0.0,4.0,48,0.00,,CLR,0.00,VWS V14.01,2013-02-07 14:25:00,
2013-02-07 09:30:00,26.7,9.7,30.46,NNW,331,1.0,4.0,48,0.00,,CLR,0.00,VWS V14.01,2013-02-07 14:30:00,
2013-02-07 09:35:00,26.9,9.4,30.46,NW,318,4.0,5.0,47,0.00,,CLR,0.00,VWS V14.01,2013-02-07 14:35:00,
2013-02-07 09:40:00,27.1,9.6,30.47,NW,304,2.0,5.0,47,0.00,,CLR,0.00,VWS V14.01,2013-02-07 14:40:00,
2013-02-07 09:45:00,27.3,9.7,30.47,NNE,19,3.0,5.0,47,0.00,,CLR,0.00,VWS V14.01,2013-02-07 14:45:00,
2013-02-07 09:50:00,27.6,10.0,30.47,North,9,1.0,5.0,47,0.00,,CLR,0.00,VWS V14.01,2013-02-07 14:50:00,
2013-02-07 09:55:00,27.7,9.6,30.47,NNW,336,1.0,6.0,46,0.00,,CLR,0.00,VWS V14.01,2013-02-07 14:55:00,
2013-02-07 10:00:00,27.9,9.3,30.47,NNW,336,1.0,6.0,45,0.00,,CLR,0.00,VWS V14.01,2013-02-07 15:00:00,
2013-02-07 10:05:00,28.1,10.0,30.47,NNE,30,1.0,4.0,46,0.00,,CLR,0.00,VWS V14.01,2013-02-07 15:05:00,
2013-02-07 10:10:00,28.3,9.7,30.47,NW,309,4.0,6.0,45,0.00,,CLR,0.00,VWS V14.01,2013-02-07 15:10:00,
2013-02-07 10:15:00,28.5,9.9,30.47,NW,309,9.0,12.0,45,0.00,,CLR,0.00,VWS V14.01,2013-02-07 15:15:00,
2013-02-07 10:20:00,28.5,9.4,30.47,North,351,1.0,12.0,44,0.00,,CLR,0.00,VWS V14.01,2013-02-07 15:20:00,
2013-02-07 10:25:00,28.6,9.5,30.47,NNW,346,2.0,12.0,44,0.00,,CLR,0.00,VWS V14.01,2013-02-07 15:25:00,
2013-02-07 10:30:00,28.8,9.6,30.47,NW,313,0.0,12.0,44,0.00,,CLR,0.00,VWS V14.01,2013-02-07 15:30:00,
2013-02-07 10:35:00,28.9,9.7,30.47,WNW,292,1.0,5.0,44,0.00,,CLR,0.00,VWS V14.01,2013-02-07 15:35:00,
2013-02-07 10:40:00,29.0,9.8,30.47,North,5,2.0,5.0,44,0.00,,CLR,0.00,VWS V14.01,2013-02-07 15:40:00,
2013-02-07 10:45:00,29.3,10.1,30.48,NNW,334,0.0,5.0,44,0.00,,CLR,0.00,VWS V14.01,2013-02-07 15:45:00,
2013-02-07 10:50:00,29.5,10.3,30.48,NW,316,3.0,5.0,44,0.00,,CLR,0.00,VWS V14.01,2013-02-07 15:50:00,
2013-02-07 10:55:00,29.8,10.6,30.48,NW,317,1.0,5.0,44,0.00,,CLR,0.00,VWS V14.01,2013-02-07 15:55:00,
2013-02-07 11:00:00,30.0,10.2,30.48,NNE,27,3.0,5.0,43,0.00,,CLR,0.00,VWS V14.01,2013-02-07 16:00:00,
2013-02-07 11:05:00,30.2,9.9,30.48,NNW,331,4.0,6.0,42,0.00,,CLR,0.00,VWS V14.01,2013-02-07 16:05:00,
2013-02-07 11:10:00,30.3,10.0,30.47,North,11,4.0,7.0,42,0.00,,CLR,0.00,VWS V14.01,2013-02-07 16:10:00,
2013-02-07 11:15:00,30.5,9.6,30.47,NE,39,0.0,7.0,41,0.00,,CLR,0.00,VWS V14.01,2013-02-07 16:15:00,
2013-02-07 11:20:00,30.7,9.8,30.47,North,11,3.0,7.0,41,0.00,,CLR,0.00,VWS V14.01,2013-02-07 16:20:00,
2013-02-07 11:25:00,31.0,10.1,30.47,NE,53,3.0,7.0,41,0.00,,CLR,0.00,VWS V14.01,2013-02-07 16:25:00,
2013-02-07 11:30:00,31.1,10.2,30.46,NE,41,3.0,9.0,41,0.00,,CLR,0.00,VWS V14.01,2013-02-07 16:30:00,
2013-02-07 11:35:00,31.2,10.2,30.46,NE,34,1.0,5.0,41,0.00,,CLR,0.00,VWS V14.01,2013-02-07 16:35:00,
2013-02-07 11:40:00,31.5,11.1,30.46,NE,34,2.0,6.0,42,0.00,,CLR,0.00,VWS V14.01,2013-02-07 16:40:00,
2013-02-07 11:45:00,31.7,10.7,30.45,NNW,336,0.0,6.0,41,0.00,,CLR,0.00,VWS V14.01,2013-02-07 16:45:00,
2013-02-07 11:50:00,31.8,11.3,30.45,NE,56,1.0,6.0,42,0.00,,CLR,0.00,VWS V14.01,2013-02-07 16:50:00,
2013-02-07 11:55:00,31.9,10.9,30.45,NW,317,6.0,6.0,41,0.00,,CLR,0.00,VWS V14.01,2013-02-07 16:55:00,
2013-02-07 12:00:00,32.0,9.3,30.45,NNW,336,1.0,6.0,38,0.00,,CLR,0.00,VWS V14.01,2013-02-07 17:00:00,
2013-02-07 12:05:00,32.1,9.9,30.45,WNW,286,2.0,6.0,39,0.00,,CLR,0.00,VWS V14.01,2013-02-07 17:05:00,
2013-02-07 12:10:00,32.3,10.1,30.45,ENE,58,2.0,6.0,39,0.00,,CLR,0.00,VWS V14.01,2013-02-07 17:10:00,
2013-02-07 12:15:00,32.7,10.5,30.45,ENE,64,0.0,6.0,39,0.00,,CLR,0.00,VWS V14.01,2013-02-07 17:15:00,
2013-02-07 12:20:00,33.1,11.4,30.45,ENE,63,1.0,6.0,40,0.00,,CLR,0.00,VWS V14.01,2013-02-07 17:20:00,
2013-02-07 12:25:00,33.4,11.7,30.44,ENE,63,0.0,6.0,40,0.00,,CLR,0.00,VWS V14.01,2013-02-07 17:25:00,
2013-02-07 12:30:00,33.5,10.6,30.44,ENE,72,3.0,6.0,38,0.00,,CLR,0.00,VWS V14.01,2013-02-07 17:30:00,
2013-02-07 12:35:00,33.7,10.8,30.44,NE,55,4.0,4.0,38,0.00,,CLR,0.00,VWS V14.01,2013-02-07 17:35:00,
2013-02-07 12:40:00,33.8,10.3,30.44,NNE,32,2.0,4.0,37,0.00,,CLR,0.00,VWS V14.01,2013-02-07 17:40:00,
2013-02-07 12:45:00,33.9,10.4,30.44,ENE,60,3.0,5.0,37,0.00,,CLR,0.00,VWS V14.01,2013-02-07 17:45:00,
2013-02-07 12:50:00,34.0,9.9,30.44,NNE,28,4.0,5.0,36,0.00,,CLR,0.00,VWS V14.01,2013-02-07 17:50:00,
2013-02-07 12:55:00,34.2,10.1,30.44,NNE,24,2.0,5.0,36,0.00,,CLR,0.00,VWS V14.01,2013-02-07 17:55:00,
2013-02-07 13:00:00,34.4,10.2,30.43,NE,44,1.0,5.0,36,0.00,,CLR,0.00,VWS V14.01,2013-02-07 18:00:00,
2013-02-07 13:05:00,34.6,11.0,30.44,NNE,19,3.0,6.0,37,0.00,,CLR,0.00,VWS V14.01,2013-02-07 18:05:00,
2013-02-07 13:10:00,34.7,10.5,30.43,NNE,21,2.0,6.0,36,0.00,,CLR,0.00,VWS V14.01,2013-02-07 18:10:00,
2013-02-07 13:15:00,34.8,10.6,30.43,NNE,21,0.0,6.0,36,0.00,,CLR,0.00,VWS V14.01,2013-02-07 18:15:00,
2013-02-07 13:20:00,34.8,9.9,30.43,NNE,21,1.0,6.0,35,0.00,,CLR,0.00,VWS V14.01,2013-02-07 18:20:00,
2013-02-07 13:25:00,34.7,9.9,30.43,NW,319,1.0,6.0,35,0.00,,CLR,0.00,VWS V14.01,2013-02-07 18:25:00,
2013-02-07 13:30:00,35.0,11.4,30.43,NNE,31,2.0,6.0,37,0.00,,CLR,0.00,VWS V14.01,2013-02-07 18:30:00,
2013-02-07 13:35:00,34.9,11.3,30.42,NE,38,1.0,3.0,37,0.00,,CLR,0.00,VWS V14.01,2013-02-07 18:35:00,
2013-02-07 13:40:00,35.0,10.8,30.42,NW,319,1.0,4.0,36,0.00,,CLR,0.00,VWS V14.01,2013-02-07 18:40:00,
2013-02-07 13:45:00,35.1,10.9,30.42,NW,310,0.0,4.0,36,0.00,,CLR,0.00,VWS V14.01,2013-02-07 18:45:00,
2013-02-07 13:50:00,35.1,10.2,30.42,ESE,107,3.0,4.0,35,0.00,,CLR,0.00,VWS V14.01,2013-02-07 18:50:00,
2013-02-07 13:55:00,35.1,11.5,30.42,ESE,107,0.0,4.0,37,0.00,,CLR,0.00,VWS V14.01,2013-02-07 18:55:00,
2013-02-07 14:00:00,35.0,10.8,30.42,ENE,64,3.0,4.0,36,0.00,,FEW110,0.00,VWS V14.01,2013-02-07 19:00:00,
2013-02-07 14:05:00,34.7,10.5,30.42,ENE,57,2.0,4.0,36,0.00,,FEW110,0.00,VWS V14.01,2013-02-07 19:05:00,
2013-02-07 14:10:00,34.6,11.0,30.42,East,82,0.0,4.0,37,0.00,,FEW110,0.00,VWS V14.01,2013-02-07 19:10:00,
2013-02-07 14:15:00,34.4,10.8,30.42,SE,136,1.0,5.0,37,0.00,,FEW110,0.00,VWS V14.01,2013-02-07 19:15:00,
2013-02-07 14:20:00,34.3,10.8,30.42,ESE,112,2.0,5.0,37,0.00,,FEW110,0.00,VWS V14.01,2013-02-07 19:20:00,
2013-02-07 14:25:00,34.2,10.7,30.42,ESE,112,1.0,5.0,37,0.00,,FEW110,0.00,VWS V14.01,2013-02-07 19:25:00,
2013-02-07 14:30:00,34.0,11.7,30.42,ESE,119,2.0,5.0,39,0.00,,FEW110,0.00,VWS V14.01,2013-02-07 19:30:00,
2013-02-07 14:35:00,34.0,11.7,30.42,South,169,2.0,3.0,39,0.00,,FEW110,0.00,VWS V14.01,2013-02-07 19:35:00,
2013-02-07 14:40:00,33.8,11.5,30.42,ESE,105,3.0,5.0,39,0.00,,FEW110,0.00,VWS V14.01,2013-02-07 19:40:00,
2013-02-07 14:45:00,33.8,12.1,30.42,South,169,1.0,5.0,40,0.00,,FEW110,0.00,VWS V14.01,2013-02-07 19:45:00,
2013-02-07 14:50:00,33.8,13.1,30.42,East,86,3.0,5.0,42,0.00,,FEW110,0.00,VWS V14.01,2013-02-07 19:50:00,
2013-02-07 14:55:00,33.7,13.1,30.42,SSE,150,2.0,5.0,42,0.00,,FEW110,0.00,VWS V14.01,2013-02-07 19:55:00,
2013-02-07 15:00:00,33.6,12.4,30.42,SSE,150,1.0,5.0,41,0.00,,OVC110,0.00,VWS V14.01,2013-02-07 20:00:00,
2013-02-07 15:05:00,33.4,13.9,30.42,SSE,161,3.0,5.0,44,0.00,,OVC110,0.00,VWS V14.01,2013-02-07 20:05:00,
2013-02-07 15:10:00,33.2,13.7,30.42,SE,136,3.0,5.0,44,0.00,,OVC110,0.00,VWS V14.01,2013-02-07 20:10:00,
2013-02-07 15:15:00,33.0,13.0,30.42,SE,136,1.0,5.0,43,0.00,,OVC110,0.00,VWS V14.01,2013-02-07 20:15:00,
2013-02-07 15:20:00,32.9,12.9,30.42,SE,136,2.0,5.0,43,0.00,,OVC110,0.00,VWS V14.01,2013-02-07 20:20:00,
2013-02-07 15:25:00,32.9,13.9,30.42,SSE,154,3.0,5.0,45,0.00,,OVC110,0.00,VWS V14.01,2013-02-07 20:25:00,
2013-02-07 15:30:00,32.8,13.8,30.42,SSE,153,1.0,5.0,45,0.00,,OVC110,0.00,VWS V14.01,2013-02-07 20:30:00,
2013-02-07 15:35:00,32.8,13.8,30.42,SSE,156,1.0,3.0,45,0.00,,OVC110,0.00,VWS V14.01,2013-02-07 20:35:00,
2013-02-07 15:40:00,32.8,13.8,30.42,SSE,154,0.0,3.0,45,0.00,,OVC110,0.00,VWS V14.01,2013-02-07 20:40:00,
2013-02-07 15:45:00,32.6,13.6,30.42,SSE,154,0.0,4.0,45,0.00,,OVC110,0.00,VWS V14.01,2013-02-07 20:45:00,
2013-02-07 15:50:00,32.6,13.6,30.42,SSE,154,1.0,4.0,45,0.00,,OVC110,0.00,VWS V14.01,2013-02-07 20:50:00,
2013-02-07 15:55:00,32.5,14.5,30.41,SSE,154,1.0,4.0,47,0.00,,OVC110,0.00,VWS V14.01,2013-02-07 20:55:00,
2013-02-07 16:00:00,32.5,14.5,30.41,SSE,154,1.0,4.0,47,0.00,,OVC100,0.00,VWS V14.01,2013-02-07 21:00:00,
2013-02-07 16:05:00,32.3,14.8,30.42,SSE,154,1.0,3.0,48,0.00,,OVC100,0.00,VWS V14.01,2013-02-07 21:05:00,
2013-02-07 16:10:00,32.3,14.8,30.41,SSE,154,1.0,3.0,48,0.00,,OVC100,0.00,VWS V14.01,2013-02-07 21:10:00,
2013-02-07 16:15:00,32.2,14.7,30.42,SSE,154,0.0,3.0,48,0.00,,OVC100,0.00,VWS V14.01,2013-02-07 21:15:00,
2013-02-07 16:20:00,32.1,14.6,30.42,SSE,154,0.0,3.0,48,0.00,,OVC100,0.00,VWS V14.01,2013-02-07 21:20:00,
2013-02-07 16:25:00,32.1,15.1,30.41,SSE,154,2.0,3.0,49,0.00,,OVC100,0.00,VWS V14.01,2013-02-07 21:25:00,
2013-02-07 16:30:00,32.1,15.1,30.42,SSE,154,2.0,3.0,49,0.00,,OVC100,0.00,VWS V14.01,2013-02-07 21:30:00,
2013-02-07 16:35:00,32.0,14.6,30.42,SSE,154,1.0,2.0,48,0.00,,OVC100,0.00,VWS V14.01,2013-02-07 21:35:00,
2013-02-07 16:40:00,32.0,14.6,30.42,SSE,154,1.0,2.0,48,0.00,,OVC100,0.00,VWS V14.01,2013-02-07 21:40:00,
2013-02-07 16:45:00,32.0,15.0,30.42,SSE,154,2.0,2.0,49,0.00,,OVC100,0.00,VWS V14.01,2013-02-07 21:45:00,
2013-02-07 16:51:00,32.0,15.5,30.42,SSE,154,1.0,3.0,50,0.00,,OVC100,0.00,VWS V14.01,2013-02-07 21:51:00,
2013-02-07 16:56:00,32.0,15.5,30.42,ESE,103,0.0,3.0,50,0.00,,OVC100,0.00,VWS V14.01,2013-02-07 21:56:00,
2013-02-07 17:01:00,32.0,15.0,30.42,ESE,103,0.0,3.0,49,0.00,,OVC100,0.00,VWS V14.01,2013-02-07 22:01:00,
2013-02-07 17:06:00,32.0,15.0,30.42,ESE,103,2.0,3.0,49,0.00,,OVC100,0.00,VWS V14.01,2013-02-07 22:06:00,
2013-02-07 17:11:00,31.9,15.4,30.41,ESE,103,0.0,3.0,50,0.00,,OVC100,0.00,VWS V14.01,2013-02-07 22:11:00,
2013-02-07 17:16:00,31.9,15.8,30.41,ESE,103,1.0,3.0,51,0.00,,OVC100,0.00,VWS V14.01,2013-02-07 22:16:00,
2013-02-07 17:21:00,31.9,15.8,30.41,ESE,103,0.0,3.0,51,0.00,,OVC100,0.00,VWS V14.01,2013-02-07 22:21:00,
2013-02-07 17:26:00,31.9,15.8,30.41,ESE,103,1.0,3.0,51,0.00,,OVC100,0.00,VWS V14.01,2013-02-07 22:26:00,
2013-02-07 17:31:00,31.9,15.8,30.41,ESE,103,2.0,3.0,51,0.00,,OVC100,0.00,VWS V14.01,2013-02-07 22:31:00,
2013-02-07 17:36:00,31.8,16.2,30.41,ESE,103,2.0,3.0,52,0.00,,OVC100,0.00,VWS V14.01,2013-02-07 22:36:00,
2013-02-07 17:41:00,31.8,17.1,30.41,ESE,103,2.0,3.0,54,0.00,,OVC100,0.00,VWS V14.01,2013-02-07 22:41:00,
2013-02-07 17:46:00,31.8,17.5,30.41,ESE,103,2.0,3.0,55,0.00,,OVC100,0.00,VWS V14.01,2013-02-07 22:46:00,
2013-02-07 17:51:00,31.8,17.5,30.41,ENE,57,2.0,5.0,55,0.00,,OVC100,0.00,VWS V14.01,2013-02-07 22:51:00,
2013-02-07 17:56:00,31.7,17.4,30.42,East,98,2.0,5.0,55,0.00,,OVC100,0.00,VWS V14.01,2013-02-07 22:56:00,
2013-02-07 18:01:00,31.7,17.4,30.42,East,98,0.0,5.0,55,0.00,,OVC100,0.00,VWS V14.01,2013-02-07 23:01:00,
2013-02-07 18:06:00,31.7,17.8,30.42,East,98,1.0,3.0,56,0.00,,OVC100,0.00,VWS V14.01,2013-02-07 23:06:00,
2013-02-07 18:11:00,31.7,17.8,30.42,East,98,3.0,3.0,56,0.00,,OVC100,0.00,VWS V14.01,2013-02-07 23:11:00,
2013-02-07 18:16:00,31.7,17.8,30.42,ESE,105,0.0,4.0,56,0.00,,OVC100,0.00,VWS V14.01,2013-02-07 23:16:00,
2013-02-07 18:21:00,31.7,17.8,30.42,ESE,105,1.0,4.0,56,0.00,,OVC100,0.00,VWS V14.01,2013-02-07 23:21:00,
2013-02-07 18:26:00,31.7,18.2,30.42,ESE,105,1.0,4.0,57,0.00,,OVC100,0.00,VWS V14.01,2013-02-07 23:26:00,
2013-02-07 18:31:00,31.7,18.2,30.42,ESE,105,0.0,4.0,57,0.00,,OVC100,0.00,VWS V14.01,2013-02-07 23:31:00,
2013-02-07 18:36:00,31.7,18.2,30.42,ENE,69,3.0,4.0,57,0.00,,OVC100,0.00,VWS V14.01,2013-02-07 23:36:00,
2013-02-07 18:41:00,31.7,18.6,30.42,SE,134,2.0,4.0,58,0.00,,OVC100,0.00,VWS V14.01,2013-02-07 23:41:00,
2013-02-07 18:46:00,31.7,18.2,30.42,NE,55,1.0,4.0,57,0.00,,OVC100,0.00,VWS V14.01,2013-02-07 23:46:00,
2013-02-07 18:51:00,31.8,18.7,30.42,SSE,152,3.0,4.0,58,0.00,,OVC100,0.00,VWS V14.01,2013-02-07 23:51:00,
2013-02-07 18:56:00,31.9,18.4,30.42,ENE,64,4.0,4.0,57,0.00,,OVC100,0.00,VWS V14.01,2013-02-07 23:56:00,
2013-02-07 19:01:00,31.9,18.4,30.42,East,81,1.0,5.0,57,0.00,,OVC095,0.00,VWS V14.01,2013-02-08 00:01:00,
2013-02-07 19:06:00,31.9,18.4,30.42,East,82,2.0,5.0,57,0.00,,OVC095,0.00,VWS V14.01,2013-02-08 00:06:00,
2013-02-07 19:11:00,31.9,18.4,30.42,East,88,0.0,5.0,57,0.00,,OVC095,0.00,VWS V14.01,2013-02-08 00:11:00,
2013-02-07 19:16:00,31.9,18.0,30.42,NE,52,1.0,5.0,56,0.00,,OVC095,0.00,VWS V14.01,2013-02-08 00:16:00,
2013-02-07 19:21:00,31.8,17.9,30.42,East,82,1.0,5.0,56,0.00,,OVC095,0.00,VWS V14.01,2013-02-08 00:21:00,
2013-02-07 19:26:00,31.8,17.9,30.42,East,82,1.0,5.0,56,0.00,,OVC095,0.00,VWS V14.01,2013-02-08 00:26:00,
2013-02-07 19:31:00,31.7,17.8,30.42,East,82,0.0,5.0,56,0.00,,OVC095,0.00,VWS V14.01,2013-02-08 00:31:00,
2013-02-07 19:36:00,31.7,18.2,30.42,East,82,0.0,2.0,57,0.00,,OVC095,0.00,VWS V14.01,2013-02-08 00:36:00,
2013-02-07 19:41:00,31.6,18.1,30.42,East,82,1.0,3.0,57,0.00,,OVC095,0.00,VWS V14.01,2013-02-08 00:41:00,
2013-02-07 19:46:00,31.5,18.4,30.42,ESE,112,1.0,3.0,58,0.00,,OVC095,0.00,VWS V14.01,2013-02-08 00:46:00,
2013-02-07 19:51:00,31.5,18.0,30.42,ESE,123,1.0,5.0,57,0.00,,OVC095,0.00,VWS V14.01,2013-02-08 00:51:00,
2013-02-07 19:56:00,31.5,18.4,30.42,SSE,150,1.0,5.0,58,0.00,,OVC095,0.00,VWS V14.01,2013-02-08 00:56:00,
2013-02-07 20:01:00,31.5,18.4,30.42,ESE,107,0.0,5.0,58,0.00,,BKN100,0.00,VWS V14.01,2013-02-08 01:01:00,
2013-02-07 20:06:00,31.4,18.4,30.42,ESE,108,0.0,4.0,58,0.00,,BKN100,0.00,VWS V14.01,2013-02-08 01:06:00,
2013-02-07 20:11:00,31.4,18.7,30.42,East,101,3.0,5.0,59,0.00,,BKN100,0.00,VWS V14.01,2013-02-08 01:11:00,
2013-02-07 20:16:00,31.4,18.7,30.42,East,101,2.0,5.0,59,0.00,,BKN100,0.00,VWS V14.01,2013-02-08 01:16:00,
2013-02-07 20:21:00,31.4,18.7,30.41,ENE,76,1.0,5.0,59,0.00,,BKN100,0.00,VWS V14.01,2013-02-08 01:21:00,
2013-02-07 20:26:00,31.3,19.0,30.41,East,94,1.0,5.0,60,0.00,,BKN100,0.00,VWS V14.01,2013-02-08 01:26:00,
2013-02-07 20:31:00,31.3,19.0,30.41,ESE,121,5.0,5.0,60,0.00,,BKN100,0.00,VWS V14.01,2013-02-08 01:31:00,
2013-02-07 20:36:00,31.3,19.0,30.41,ESE,108,1.0,7.0,60,0.00,,BKN100,0.00,VWS V14.01,2013-02-08 01:36:00,
2013-02-07 20:41:00,31.3,19.0,30.41,ESE,105,1.0,7.0,60,0.00,,BKN100,0.00,VWS V14.01,2013-02-08 01:41:00,
2013-02-07 20:46:00,31.2,19.0,30.41,ESE,106,2.0,9.0,60,0.00,,BKN100,0.00,VWS V14.01,2013-02-08 01:46:00,
2013-02-07 20:51:00,31.3,18.6,30.41,ESE,117,3.0,9.0,59,0.00,,BKN100,0.00,VWS V14.01,2013-02-08 01:51:00,
2013-02-07 20:56:00,31.4,18.7,30.41,East,95,1.0,9.0,59,0.00,,BKN100,0.00,VWS V14.01,2013-02-08 01:56:00,
2013-02-07 21:01:00,31.5,19.2,30.41,East,82,3.0,9.0,60,0.00,,SCT100,0.00,VWS V14.01,2013-02-08 02:01:00,
2013-02-07 21:06:00,31.5,18.8,30.41,East,101,2.0,4.0,59,0.00,,SCT100,0.00,VWS V14.01,2013-02-08 02:06:00,
2013-02-07 21:11:00,31.5,18.8,30.41,East,94,2.0,5.0,59,0.00,,SCT100,0.00,VWS V14.01,2013-02-08 02:11:00,
2013-02-07 21:16:00,31.6,18.9,30.41,East,84,1.0,5.0,59,0.00,,SCT100,0.00,VWS V14.01,2013-02-08 02:16:00,
2013-02-07 21:21:00,31.6,18.9,30.41,ENE,61,0.0,6.0,59,0.00,,SCT100,0.00,VWS V14.01,2013-02-08 02:21:00,
2013-02-07 21:26:00,31.6,18.9,30.41,NE,48,3.0,6.0,59,0.00,,SCT100,0.00,VWS V14.01,2013-02-08 02:26:00,
2013-02-07 21:31:00,31.6,18.9,30.41,East,81,3.0,3.0,59,0.00,,SCT100,0.00,VWS V14.01,2013-02-08 02:31:00,
2013-02-07 21:36:00,31.7,19.0,30.41,SE,128,1.0,6.0,59,0.00,,SCT100,0.00,VWS V14.01,2013-02-08 02:36:00,
2013-02-07 21:41:00,31.7,19.0,30.42,ESE,105,4.0,6.0,59,0.00,,SCT100,0.00,VWS V14.01,2013-02-08 02:41:00,
2013-02-07 21:46:00,31.7,19.4,30.41,SE,138,2.0,6.0,60,0.00,,SCT100,0.00,VWS V14.01,2013-02-08 02:46:00,
2013-02-07 21:51:00,31.8,19.1,30.42,East,79,1.0,6.0,59,0.00,,SCT100,0.00,VWS V14.01,2013-02-08 02:51:00,
2013-02-07 21:56:00,31.8,19.5,30.42,ENE,67,3.0,6.0,60,0.00,,SCT100,0.00,VWS V14.01,2013-02-08 02:56:00,
2013-02-07 22:01:00,31.9,20.0,30.42,ENE,77,1.0,2.0,61,0.00,,CLR,0.00,VWS V14.01,2013-02-08 03:01:00,
2013-02-07 22:06:00,32.0,20.5,30.42,ENE,76,3.0,4.0,62,0.00,,CLR,0.00,VWS V14.01,2013-02-08 03:06:00,
2013-02-07 22:11:00,32.0,20.9,30.42,ESE,113,3.0,5.0,63,0.00,,CLR,0.00,VWS V14.01,2013-02-08 03:11:00,
2013-02-07 22:16:00,32.1,21.3,30.41,ESE,115,2.0,5.0,64,0.00,,CLR,0.00,VWS V14.01,2013-02-08 03:16:00,
2013-02-07 22:21:00,32.1,21.7,30.42,ENE,58,1.0,5.0,65,0.00,,CLR,0.00,VWS V14.01,2013-02-08 03:21:00,
2013-02-07 22:26:00,32.1,21.7,30.41,ESE,113,3.0,5.0,65,0.00,,CLR,0.00,VWS V14.01,2013-02-08 03:26:00,
2013-02-07 22:31:00,32.2,21.8,30.41,SE,124,0.0,1.0,65,0.00,,CLR,0.00,VWS V14.01,2013-02-08 03:31:00,
2013-02-07 22:36:00,32.2,21.8,30.41,East,95,2.0,7.0,65,0.00,,CLR,0.00,VWS V14.01,2013-02-08 03:36:00,
2013-02-07 22:41:00,32.3,22.2,30.41,ESE,118,1.0,7.0,66,0.00,,CLR,0.00,VWS V14.01,2013-02-08 03:41:00,
2013-02-07 22:46:00,32.3,22.6,30.41,ESE,105,2.0,7.0,67,0.00,,CLR,0.00,VWS V14.01,2013-02-08 03:46:00,
2013-02-07 22:51:00,32.3,22.9,30.41,SE,135,4.0,7.0,68,0.00,,CLR,0.00,VWS V14.01,2013-02-08 03:51:00,
2013-02-07 22:56:00,32.3,22.9,30.41,ENE,77,1.0,7.0,68,0.00,,CLR,0.00,VWS V14.01,2013-02-08 03:56:00,
2013-02-07 23:01:00,32.3,22.9,30.41,SE,144,4.0,5.0,68,0.00,,OVC090,0.00,VWS V14.01,2013-02-08 04:01:00,
2013-02-07 23:06:00,32.2,22.8,30.40,ESE,106,0.0,6.0,68,0.00,,OVC090,0.00,VWS V14.01,2013-02-08 04:06:00,
2013-02-07 23:11:00,32.2,22.5,30.41,NE,42,2.0,6.0,67,0.00,,OVC090,0.00,VWS V14.01,2013-02-08 04:11:00,
2013-02-07 23:16:00,32.0,21.9,30.40,NE,55,2.0,6.0,66,0.00,,OVC090,0.00,VWS V14.01,2013-02-08 04:16:00,
2013-02-07 23:21:00,31.8,21.8,30.40,ENE,57,2.0,6.0,66,0.00,,OVC090,0.00,VWS V14.01,2013-02-08 04:21:00,
2013-02-07 23:26:00,31.5,21.8,30.39,NNE,31,5.0,6.0,67,0.00,,OVC090,0.00,VWS V14.01,2013-02-08 04:26:00,
2013-02-07 23:31:00,31.1,21.4,30.39,ENE,65,1.0,4.0,67,0.00,,OVC090,0.00,VWS V14.01,2013-02-08 04:31:00,
2013-02-07 23:36:00,30.9,21.6,30.39,NE,34,4.0,6.0,68,0.00,,OVC090,0.00,VWS V14.01,2013-02-08 04:36:00,
2013-02-07 23:41:00,30.6,21.3,30.39,ENE,57,2.0,7.0,68,0.00,,OVC090,0.00,VWS V14.01,2013-02-08 04:41:00,
2013-02-07 23:46:00,30.4,21.1,30.39,ENE,64,2.0,7.0,68,0.00,,OVC090,0.00,VWS V14.01,2013-02-08 04:46:00,
2013-02-07 23:51:00,30.3,21.0,30.38,NE,54,4.0,7.0,68,0.00,,OVC090,0.00,VWS V14.01,2013-02-08 04:51:00,
2013-02-07 23:56:00,30.1,20.8,30.38,NE,49,2.0,9.0,68,0.00,,OVC090,0.00,VWS V14.01,2013-02-08 04:56:00,